Location: Casco Millpond
(44.5581°N, 87.6111°W)
Time: 23:34:10
(UTC+00:00)

Resurs 01 Rocket - Pass Details

Date: 16 January 2026
Orbit: 628 x 635 km, 97.7° (Epoch: 13 February)

Event Time Altitude Azimuth Distance (km) Brightness Sun altitude
Rises 23:27:21 0° 118° (ESE) 2,907 4.6 -8.8°
Reaches altitude 10° 23:30:24 10° 95° (E) 2,006 3.6 -9.3°
Maximum altitude 23:32:47 15° 62° (ENE) 1,719 3.2 -9.7°
Drops below altitude 10° 23:35:11 10° 28° (NNE) 2,014 3.8 -10.1°
Sets 23:38:15 0° 5° (N) 2,928 4.8 -10.6°
